sat.trackr.live / text

‹ back to catalog

STARLINK-3270

NORAD 50199 · 2021-125AV

PAYLOAD ACTIVE UNKNOWN

§ Identity

Operator
Country
US
Launch date
2021-12-18
Launch site
AFWTR
Launch vehicle
Mass (kg)
RCS (m²)

Purposes: comms

External: N2YO · Heavens-Above · Gunter

§ Orbital elements

Epoch: 2026-09-20T02:26:08.590848Z

Period
93.79 min
Inclination
53.1594°
Eccentricity
0.0001208
Mean motion
15.35399182 rev/d
Perigee alt
458.9 km
Apogee alt
460.6 km
Semi-major
6,837.9 km
B*
1.7750e-5
RAAN
75.4891°
Arg perigee
84.3446°
Mean anomaly
275.7695°
Rev number
26,622

§ Raw data

STARLINK-32701 50199U 21125AV  26263.10148832  .00000239  00000+0  17750-4 0  99982 50199  53.1594  75.4891 0001208  84.3446 275.7695 15.35399182266222

JSON: /api/v1/satellites/50199 · /tle

For live sub-satellite position, see the globe view (requires WebGL).

§ Visibility from observer

Set your observer location to see the next 7 days of passes ≥ 10°. The values pass through the URL so the page stays shareable.

No JS? Fill the form by hand. The geolocation button needs JavaScript.